Location: Moscow
(55.7500°N, 37.5830°E)
Time: 11:37:46
(UTC+03:00)

Explorer 7 - Pass Details

Date: 02 December 2021
Orbit: 483 x 674 km, 50.3° (Epoch: 19 January)

Event Time Altitude Azimuth Distance (km) Brightness Sun altitude
Rises 08:09:14 0° 233° (SW) 2,749 10.2 -3.9°
Reaches altitude 10° 08:11:44 10° 222° (SW) 1,819 9.4 -3.6°
Maximum altitude 08:15:17 28° 162° (SSE) 1,008 8.9 -3.2°
Drops below altitude 10° 08:18:41 10° 102° (ESE) 1,735 10.7 -2.8°
Sets 08:21:01 0° 91° (E) 2,597 11.3 -2.6°
